• In Belarus
  • List of Countries
  • For 7 days
  • Water Temperature
  • Satellite Maps
  • Weather Map
  • Weather Widgets
  • user-avatar
    Login

    Hourly Weather Melbourne

    Today, 25 June, Tuesday

    Time Temperature Precipitation Wind Pressure Humidity
    00:00 +7°C° 0 mm 2 mps 773 mmHg 62%
    01:00 +6°C° 0 mm 2 mps 773 mmHg 61%
    02:00 +6°C° 0 mm 2 mps 773 mmHg 60%
    03:00 +6°C° 0 mm 2 mps 773 mmHg 60%
    04:00 +6°C° 0 mm 2 mps 773 mmHg 59%
    05:00 +6°C° 0 mm 2 mps 773 mmHg 58%
    06:00 +6°C° 0 mm 2 mps 773 mmHg 58%
    07:00 +6°C° 0 mm 2 mps 774 mmHg 58%
    08:00 +7°C° 0 mm 2 mps 774 mmHg 56%
    09:00 +9°C° 0 mm 2 mps 774 mmHg 55%
    10:00 +10°C° 0 mm 2 mps 774 mmHg 55%
    11:00 +13°C° 0 mm 2 mps 774 mmHg 54%
    12:00 +15°C° 0 mm 2 mps 773 mmHg 53%
    13:00 +16°C° 0 mm 3 mps 773 mmHg 52%
    14:00 +16°C° 0 mm 2 mps 773 mmHg 55%
    15:00 +16°C° 0 mm 2 mps 773 mmHg 57%
    16:00 +16°C° 0 mm 2 mps 773 mmHg 60%
    17:00 +14°C° 0 mm 2 mps 773 mmHg 66%
    18:00 +13°C° 0 mm 2 mps 774 mmHg 72%
    19:00 +10°C° 0 mm 2 mps 774 mmHg 77%
    20:00 +10°C° 0 mm 2 mps 774 mmHg 78%
    21:00 +9°C° 0 mm 2 mps 774 mmHg 80%
    22:00 +9°C° 0 mm 2 mps 775 mmHg 81%
    23:00 +9°C° 0 mm 2 mps 774 mmHg 81%

    Tomorrow, 26 June, Wednesday

    Time Temperature Precipitation Wind Pressure Humidity
    00:00 +8°C° 0 mm 2 mps 774 mmHg 81%
    01:00 +8°C° 0 mm 2 mps 774 mmHg 82%
    02:00 +8°C° 0 mm 2 mps 774 mmHg 82%
    03:00 +8°C° 0 mm 2 mps 774 mmHg 82%
    04:00 +8°C° 0 mm 1 mps 774 mmHg 82%
    05:00 +7°C° 0 mm 2 mps 774 mmHg 82%
    06:00 +7°C° 0 mm 2 mps 775 mmHg 81%
    07:00 +7°C° 0 mm 2 mps 775 mmHg 81%
    08:00 +9°C° 0 mm 2 mps 775 mmHg 75%
    09:00 +10°C° 0 mm 2 mps 775 mmHg 69%
    10:00 +12°C° 0 mm 2 mps 775 mmHg 63%
    11:00 +14°C° 0 mm 2 mps 774 mmHg 58%
    12:00 +16°C° 0 mm 2 mps 774 mmHg 52%
    13:00 +17°C° 0 mm 2 mps 773 mmHg 47%
    14:00 +17°C° 0 mm 2 mps 773 mmHg 50%
    15:00 +17°C° 0 mm 2 mps 773 mmHg 53%
    16:00 +16°C° 0 mm 2 mps 773 mmHg 56%
    17:00 +15°C° 0 mm 2 mps 773 mmHg 63%
    18:00 +13°C° 0 mm 2 mps 773 mmHg 70%
    19:00 +12°C° 0 mm 2 mps 773 mmHg 76%
    20:00 +10°C° 0 mm 2 mps 773 mmHg 78%
    21:00 +10°C° 0 mm 2 mps 774 mmHg 80%
    22:00 +9°C° 0 mm 3 mps 774 mmHg 81%
    23:00 +9°C° 0 mm 3 mps 774 mmHg 82%

    Day after tomorrow, 27 June, Thursday

    Time Temperature Precipitation Wind Pressure Humidity
    00:00 +9°C° 0 mm 3 mps 773 mmHg 82%
    01:00 +9°C° 0 mm 3 mps 773 mmHg 82%
    02:00 +9°C° 0 mm 3 mps 773 mmHg 82%
    03:00 +8°C° 0 mm 4 mps 773 mmHg 82%
    04:00 +8°C° 0 mm 4 mps 773 mmHg 82%
    05:00 +8°C° 0 mm 4 mps 773 mmHg 80%
    06:00 +8°C° 0 mm 4 mps 773 mmHg 79%
    07:00 +8°C° 0 mm 5 mps 773 mmHg 78%
    08:00 +9°C° 0 mm 5 mps 773 mmHg 74%
    09:00 +10°C° 0 mm 5 mps 773 mmHg 70%
    10:00 +11°C° 0 mm 6 mps 773 mmHg 66%
    11:00 +13°C° 0 mm 5 mps 773 mmHg 62%
    12:00 +14°C° 0 mm 5 mps 772 mmHg 59%
    13:00 +15°C° 0 mm 5 mps 771 mmHg 56%
    14:00 +15°C° 0 mm 5 mps 771 mmHg 57%
    15:00 +15°C° 0 mm 4 mps 771 mmHg 59%
    16:00 +15°C° 0 mm 4 mps 770 mmHg 61%
    17:00 +14°C° 0 mm 4 mps 770 mmHg 66%
    18:00 +13°C° 0 mm 4 mps 771 mmHg 72%
    19:00 +11°C° 0 mm 4 mps 771 mmHg 77%
    20:00 +11°C° 0 mm 4 mps 771 mmHg 77%
    21:00 +11°C° 0 mm 4 mps 771 mmHg 77%
    22:00 +11°C° 0 mm 4 mps 771 mmHg 77%
    23:00 +11°C° 0 mm 4 mps 771 mmHg 76%

    28 June, Friday

    Time Temperature Precipitation Wind Pressure Humidity
    00:00 +11°C° 0 mm 4 mps 771 mmHg 75%
    01:00 +10°C° 0 mm 5 mps 771 mmHg 75%
    02:00 +10°C° 0 mm 5 mps 770 mmHg 75%
    03:00 +9°C° 0 mm 5 mps 770 mmHg 75%
    04:00 +9°C° 0 mm 5 mps 770 mmHg 75%
    05:00 +9°C° 0 mm 6 mps 770 mmHg 75%
    06:00 +9°C° 0 mm 6 mps 770 mmHg 74%
    07:00 +9°C° 0 mm 6 mps 770 mmHg 74%
    08:00 +10°C° 0 mm 6 mps 770 mmHg 71%
    09:00 +11°C° 0 mm 6 mps 770 mmHg 67%
    10:00 +12°C° 0 mm 7 mps 770 mmHg 64%
    11:00 +14°C° 0 mm 7 mps 769 mmHg 62%
    12:00 +15°C° 0 mm 6 mps 768 mmHg 60%
    13:00 +16°C° 0 mm 6 mps 768 mmHg 58%
    14:00 +16°C° 0 mm 6 mps 767 mmHg 59%
    15:00 +16°C° 0 mm 5 mps 767 mmHg 60%
    16:00 +16°C° 0 mm 5 mps 766 mmHg 61%
    17:00 +15°C° 0 mm 5 mps 766 mmHg 66%
    18:00 +14°C° 0 mm 5 mps 766 mmHg 71%
    19:00 +13°C° 0 mm 5 mps 766 mmHg 75%
    20:00 +13°C° 0 mm 5 mps 766 mmHg 75%
    21:00 +13°C° 0 mm 5 mps 766 mmHg 74%
    22:00 +13°C° 0 mm 5 mps 765 mmHg 73%
    23:00 +13°C° 0 mm 5 mps 765 mmHg 74%

    29 June, Saturday

    Time Temperature Precipitation Wind Pressure Humidity
    00:00 +13°C° 0 mm 6 mps 765 mmHg 75%
    01:00 +13°C° 0 mm 6 mps 764 mmHg 76%
    02:00 +13°C° 0.4 mm 6 mps 763 mmHg 78%
    03:00 +12°C° 0.4 mm 7 mps 763 mmHg 81%
    04:00 +12°C° 0.4 mm 7 mps 762 mmHg 83%
    05:00 +12°C° 0.2 mm 7 mps 762 mmHg 82%
    06:00 +12°C° 0.2 mm 7 mps 761 mmHg 82%
    07:00 +12°C° 0.2 mm 7 mps 761 mmHg 82%
    08:00 +12°C° 0.4 mm 8 mps 760 mmHg 81%
    09:00 +12°C° 0.4 mm 8 mps 760 mmHg 80%
    10:00 +12°C° 0.4 mm 9 mps 759 mmHg 80%
    11:00 +12°C° 1.3 mm 9 mps 758 mmHg 80%
    12:00 +12°C° 1.3 mm 9 mps 757 mmHg 81%
    13:00 +12°C° 1.3 mm 10 mps 756 mmHg 82%
    14:00 +12°C° 2.3 mm 9 mps 755 mmHg 83%
    15:00 +12°C° 2.3 mm 9 mps 755 mmHg 84%
    16:00 +12°C° 2.3 mm 8 mps 754 mmHg 85%
    17:00 +11°C° 1.3 mm 7 mps 755 mmHg 85%
    18:00 +10°C° 1.3 mm 6 mps 755 mmHg 85%
    19:00 +9°C° 1.3 mm 5 mps 756 mmHg 85%
    20:00 +9°C° 0.4 mm 5 mps 756 mmHg 84%
    21:00 +9°C° 0.4 mm 5 mps 757 mmHg 82%
    22:00 +9°C° 0.4 mm 5 mps 757 mmHg 81%
    23:00 +8°C° 0.1 mm 5 mps 757 mmHg 81%

    30 June, Sunday

    Time Temperature Precipitation Wind Pressure Humidity
    00:00 +8°C° 0.1 mm 5 mps 758 mmHg 80%
    01:00 +7°C° 0.1 mm 4 mps 758 mmHg 80%
    02:00 +7°C° 0 mm 5 mps 758 mmHg 79%
    03:00 +7°C° 0 mm 5 mps 758 mmHg 78%
    04:00 +6°C° 0 mm 5 mps 758 mmHg 76%
    05:00 +6°C° 0 mm 5 mps 759 mmHg 76%
    06:00 +5°C° 0 mm 6 mps 760 mmHg 77%
    07:00 +7°C° 0 mm 6 mps 760 mmHg 77%
    08:00 +7°C° 0 mm 6 mps 761 mmHg 72%
    09:00 +8°C° 0 mm 6 mps 761 mmHg 68%
    10:00 +9°C° 0 mm 7 mps 762 mmHg 64%
    11:00 +9°C° 0 mm 6 mps 762 mmHg 62%
    12:00 +10°C° 0 mm 6 mps 762 mmHg 60%
    13:00 +10°C° 0 mm 5 mps 762 mmHg 58%
    14:00 +10°C° 0 mm 5 mps 762 mmHg 59%
    15:00 +10°C° 0 mm 5 mps 762 mmHg 60%
    16:00 +11°C° 0 mm 4 mps 762 mmHg 60%
    17:00 +10°C° 0 mm 5 mps 762 mmHg 63%
    18:00 +9°C° 0 mm 5 mps 763 mmHg 66%
    19:00 +9°C° 0 mm 5 mps 763 mmHg 69%
    20:00 +9°C° 0 mm 5 mps 763 mmHg 71%
    21:00 +8°C° 0 mm 6 mps 763 mmHg 72%
    22:00 +8°C° 0 mm 6 mps 763 mmHg 74%
    23:00 +8°C° 0 mm 6 mps 763 mmHg 74%
    Show more